User: anonymous   Login
Location: *
(17.3280°S, 114.7300°W)
Time: 02:43:42
(UTC+00:00)
Language:

SPELTRA - Orbit

View from above orbital plane
View from above orbital plane
View from above satellite
View from above satellite

Ground track
Ground track

The orbit data is extracted from the following two-line orbital elements,

1 25026U 97066D   20302.43938014 -.00000101 +00000-0 -21418-4 0  9996
2 25026 007.8252 060.7245 6526225 024.3944 183.2865 03.08207443258963
Epoch (UTC): 28 October 2020 10:32:42
Eccentricity: 0.6526225
inclination: 7.8252°
perigee height: 550 km
apogee height: 26583 km
right ascension of ascending node: 60.7245°
argument of perigee: 24.3944°
revolutions per day: 3.08207443
mean anomaly at epoch: 183.2865°
orbit number at epoch: 25896

The dashed part of the orbit path shows where the satellite is in the earth's shadow,  

DLR